Regional Weather Roundup
Issued by NWS

Home | Current Version | Previous Version | Text Only | Print | Product List | Glossary Off
Versions: 1 2 3 4 5 6 7 8 9 10 11 12 13 14 15 16 17 18 19 20 21 22 23 24 25 26 27 28 29 30 31 32 33 34 35 36 37 38 39 40 41 42 43 44 45 46 47 48 49 50

000
ASUS43 KLOT 211906
RWRIL

ILLINOIS REGIONAL WEATHER ROUNDUP
NATIONAL WEATHER SERVICE CHICAGO/ROMEOVILLE IL
100 PM CST SUN DEC 21 2014

NOTE: "FAIR" INDICATES FEW OR NO CLOUDS BELOW 12,000 FEET WITH NO
SIGNIFICANT WEATHER AND/OR OBSTRUCTIONS TO VISIBILITY.

* THESE STATIONS ARE NOT UNDER NWS QUALITY CONTROL. THEY ALSO MAY NOT
  REPORT WEATHER SUCH AS PRECIPITATION OR FOG.

ILZ001-002-007-009-015-016-024-212000-
NORTHWEST ILLINOIS

CITY           SKY/WX    TMP DP  RH WIND       PRES   REMARKS
MOLINE         CLOUDY    41  34  76 S10       30.01F
STERLING*      CLOUDY    39  32  75 S9G18     30.05F WCI  33
SAVANNA*       CLOUDY    38  33  81 S12       30.02F WCI  31
$$

ILZ003-004-008-010-011-017-018-212000-
NORTH CENTRAL ILLINOIS

CITY           SKY/WX    TMP DP  RH WIND       PRES   REMARKS
ROCKFORD       CLOUDY    37  32  82 S14       30.08F HAZE    WCI  28
FREEPORT*      CLOUDY    36  32  87 S14       30.06F WCI  27
ROCHELLE*      CLOUDY    36  32  87 S13       30.08F FOG     WCI  27
DE KALB*       CLOUDY    35  31  86 S14       30.08F FOG     WCI  26
PERU*          CLOUDY    39  33  80 S15G21    30.09F WCI  30
$$

ILZ005-006-012>014-019>023-212000-
NORTHEAST ILLINOIS

CITY           SKY/WX    TMP DP  RH WIND       PRES   REMARKS
CHICAGO-OHARE  CLOUDY    36  29  75 S13       30.11F WCI  27
CHICAGO-MIDWAY CLOUDY    37  28  70 S13G21    30.13F WCI  29
AURORA         CLOUDY    38  30  73 S14       30.10F HAZE    WCI  30
LANSING*       CLOUDY    35  28  76 S13       30.15F WCI  26
JOLIET*        CLOUDY    36  29  75 S9        30.13F WCI  29
WAUKEGAN       CLOUDY    35  28  75 S14       30.10F WCI  26
DUPAGE AIRPORT CLOUDY    36  29  75 S13       30.10F WCI  27
KANKAKEE*      CLOUDY    37  30  76 S10       30.15F WCI  30
WHEELING       CLOUDY    36  28  73 S12       30.13F WCI  28
MORRIS*        CLOUDY    37  32  81 S14       30.11F WCI  29
ROMEOVILLE*    CLOUDY    36  30  78 S14       30.12F WCI  27
NORTHERLY ISL    N/A     35  27  73 S13         N/A  WCI  26
$$

LMZ740>746-212000-
SOUTHERN LAKE MICHIGAN

STATION/POSITION SKY/WX   TEMP    WIND        PRES    VSBY  WAVE
                          AIR SEA DIR/SP/G                  HT/PER
                          (F)     (DEG/KT/KT) (MB)    (MI)  (FT/S)
WAUKEGAN HARBOR            35     180/ 16/ 17   N/A
HARRISON CRIB              34     180/ 17/ 20   N/A
BURNHAM HARBOR             35     170/ 11/ 13   N/A
CALUMET HARBOR             35     160/ 10/ 14 1019.5F
$$

ILZ025>027-034>036-040-047-049-050-058-095>099-212000-
WEST-CENTRAL ILLINOIS

CITY           SKY/WX    TMP DP  RH WIND       PRES   REMARKS
QUINCY         CLOUDY    43  34  70 S15       30.00F
GALESBURG*     CLOUDY    39  34  82 S13       30.04F WCI  31
MACOMB*        CLOUDY    40  35  84 S17G24    30.06F
JACKSONVILLE*  CLOUDY    42  34  74 SE9G23    30.07F
PITTSFIELD*    CLOUDY    44  36  74 SE15      30.05F
$$

ILZ028>032-037-038-041>044-048-051>054-059>061-212000-
CENTRAL ILLINOIS

CITY           SKY/WX    TMP DP  RH WIND       PRES   REMARKS
PONTIAC        CLOUDY    38  32  80 S14G21    30.13F WCI  30
BLOOMINGTON    PTSUNNY   38  32  79 S15       30.12F WCI  29
DECATUR        CLOUDY    36  30  79 SE10      30.14F WCI  28
PEORIA         CLOUDY    40  31  70 S15G24    30.08F
LACON*         CLOUDY    38  31  74 S17       30.08F WCI  28
LINCOLN*       CLOUDY    38  32  79 S12       30.13F WCI  30
SPRINGFIELD    CLOUDY    39  31  72 SE14      30.10F WCI  31
TAYLORVILLE    CLOUDY    34  30  86 SE8       30.13F WCI  27
$$

ILZ033-039-045-046-055>057-062-063-212000-
EAST-CENTRAL ILLINOIS

CITY           SKY/WX    TMP DP  RH WIND       PRES   REMARKS
CHAMPAIGN      CLOUDY    36  29  75 S13       30.15F WCI  27
DANVILLE*      MOSUNNY   37  31  78 S8        30.14F WCI  31
RANTOUL*       CLOUDY    41  32  72 S13       30.14F
MATTOON        MOSUNNY   38  29  70 SE10      30.15F WCI  31
PARIS*         MOSUNNY   39  32  76 SE10      30.17F WCI  33
$$

ILZ079-100>102-212000-
SOUTHWEST ILLINOIS

CITY           SKY/WX    TMP DP  RH WIND       PRES   REMARKS
BELLEVILLE     CLOUDY    42  33  71 SE8       30.11F
CAHOKIA*       CLOUDY    42  33  70 SE16      30.11F
SPARTA*        CLOUDY    42  30  64 SE7       30.13F
$$

ILZ064>066-069>071-074>076-080>082-084>086-088>090-092>094-212000-
SOUTH-CENTRAL ILLINOIS

CITY           SKY/WX    TMP DP  RH WIND       PRES   REMARKS
CARBONDALE     CLOUDY    45  28  51 SE6       30.14F
CAIRO*         CLOUDY    47  34  59 E3        30.14F
EFFINGHAM*     MOSUNNY   40  27  58 E9        30.17F
MARION         PTSUNNY   45  32  61 MISG      30.15F
MT. VERNON     MOSUNNY   43  27  52 SE6       30.16F
CENTRALIA*     MOSUNNY   41  26  55 SE6       30.14F
SALEM*         MOSUNNY   44  27  51 S7        30.14F
METROPOLIS*    MOSUNNY   47  33  56 SE5       30.14F
$$

ILZ067-068-072-073-078-083-087-091-212000-
SOUTHEAST ILLINOIS

CITY           SKY/WX    TMP DP  RH WIND       PRES   REMARKS
LAWRENCEVILLE  MOSUNNY   40  30  67 SE5       30.18F
FLORA*         MOSUNNY   40  29  64 SE6       30.17F
FAIRFIELD*     MOSUNNY   42  30  62 SE8       30.15F
HARRISBURG*    SUNNY     42  31  65 SE3       30.17F
ROBINSON*      MOSUNNY   38  30  71 SE7       30.19F WCI  33
CARMI*         MOSUNNY   44  31  60 SE7       30.16F
$$

ABBREVIATIONS USED IN REMARKS
   TC - TEMPERATURE IN CELSIUS
  WCI - WIND CHILL INDEX
   HX - HEAT INDEX
  VSB - VISIBILITY
$$



USA.gov is the U.S. government's official web portal to all federal, state and local government web resources and services.